Wind_Speed
18 18 17 16 16 15 16 17 17 17 17 17 18 20 22 22 21 20 2 3 4 9 10 9 8 7 5 5 4 5 6 6 3 4 2 3 4 3 3 5 5 1 4 3 14
19 19 20 20 18 17 16 17 17 17 18 18 18 20 22 23 22 11 6 4 4 9 11 10 9 9 6 6 6 8 6 2 4 6 8 4 8 4 9 5 5 8 6 11 19
22 20 21 22 21 20 18 17 19 19 19 19 19 20 21 21 17 3 6 3 4 8 9 8 7 9 8 6 7 5 9 4 9 12 13 15 8 6 7 4 4 4 16 23 20
24 22 21 22 22 24 22 19 18 19 20 19 20 20 20 15 5 4 7 5 5 9 8 7 8 9 8 8 5 8 11 11 10 10 10 10 4 3 5 5 8 2 15 19 15
27 27 23 23 24 23 22 21 18 19 20 20 19 20 21 9 12 13 11 7 7 10 10 9 10 7 8 4 5 11 8 6 12 12 9 4 5 1 1 3 6 12 14 13 13
21 24 27 24 23 22 23 21 19 19 19 21 20 19 16 13 9 8 9 10 9 11 9 9 5 3 5 5 8 4 12 11 5 1 2 6 4 3 4 7 10 12 11 10 10
20 20 23 26 26 24 24 22 21 19 20 20 21 20 19 21 15 11 11 11 10 10 7 9 3 5 1 6 4 11 13 4 3 4 3 4 7 5 4 9 10 11 8 7 8
23 21 20 21 23 21 20 21 20 19 20 21 21 19 13 15 13 12 14 14 12 9 8 7 5 4 5 4 8 10 6 11 7 8 4 6 3 4 8 11 11 12 10 9 12
24 23 21 18 19 21 18 18 19 19 20 22 18 9 13 13 15 13 18 14 11 9 11 6 5 6 5 10 9 10 10 6 6 7 4 9 4 7 9 11 12 13 15 13 14
21 22 22 20 16 18 17 15 17 18 20 19 15 7 17 5 5 8 18 16 6 11 7 8 8 8 8 9 8 8 8 8 4 8 8 9 10 6 11 12 13 14 15 16 17
21 20 21 19 16 13 10 7 7 6 8 12 4 6 3 3 6 10 14 17 13 12 11 10 9 10 5 5 6 4 6 5 3 3 6 9 10 6 11 13 16 18 17 18 18
21 19 17 15 13 10 7 6 6 5 12 19 24 28 27 10 4 10 15 17 16 15 8 7 12 6 3 5 7 8 9 6 3 4 5 6 11 2 9 15 16 17 18 18 18
22 20 16 12 10 12 10 9 11 8 8 11 20 20 20 21 15 15 19 21 18 17 14 13 3 2 9 9 9 8 9 3 3 2 8 10 11 6 5 11 13 18 18 20 21
24 20 17 10 11 10 9 10 9 3 5 5 8 8 16 12 11 26 22 21 9 19 14 11 10 7 9 10 10 10 7 6 6 7 7 3 3 5 7 9 14 18 21 21 22
22 22 19 19 7 9 5 9 8 6 6 7 5 5 8 21 11 21 25 18 20 13 10 11 10 11 13 13 8 6 4 6 8 8 5 7 6 6 5 8 12 18 23 23 23
26 25 21 20 20 14 12 15 10 5 9 4 7 8 8 18 8 18 19 14 20 12 10 9 4 5 5 3 8 4 7 4 4 3 7 3 6 4 5 4 2 9 20 23 25
33 25 25 19 19 17 17 10 5 9 2 7 5 8 12 12 11 17 22 21 17 18 15 14 13 5 6 8 7 10 9 6 5 5 4 4 5 8 2 3 6 8 8 13 23
36 26 29 25 19 18 15 4 14 7 11 1 3 7 9 16 9 20 21 21 22 19 15 15 14 14 11 11 8 15 11 4 5 4 4 4 5 3 2 6 8 7 8 9 14
35 32 32 29 27 19 18 13 11 13 7 6 6 6 7 14 7 16 21 23 22 21 11 16 13 5 8 4 7 7 8 1 2 1 2 4 4 11 2 4 3 3 2 2 5
37 33 36 29 31 24 12 23 16 9 6 7 10 10 11 12 10 15 20 20 24 21 17 8 11 5 7 6 4 6 10 5 4 4 5 4 4 4 2 4 3 3 5 6 2
33 16 22 31 30 20 16 20 24 17 9 5 10 5 6 12 17 17 16 6 23 20 18 11 7 6 6 11 12 6 6 2 1 3 3 3 4 0 2 1 1 1 3 3 3
33 8 25 38 17 10 19 31 16 22 13 6 3 4 5 8 14 17 17 17 26 24 22 16 8 8 13 4 3 6 9 11 5 5 3 3 6 8 8 6 6 6 5 5 3
24 9 27 44 14 15 22 28 29 18 22 8 7 5 2 4 7 17 11 11 15 22 21 14 10 9 9 6 5 8 10 11 6 2 11 6 4 6 5 6 8 8 4 4 5
20 6 14 36 42 28 20 23 30 32 17 21 5 7 3 3 6 5 8 3 13 23 17 23 13 19 13 12 9 12 14 15 13 7 10 11 15 12 13 12 10 9 6 5 6
22 10 18 16 21 27 28 21 30 20 30 18 17 11 11 4 2 4 3 5 6 4 8 13 18 16 15 13 13 16 15 15 17 17 15 12 12 10 12 11 7 4 3 3 2
12 20 29 19 38 33 26 25 30 31 23 23 15 19 10 3 2 4 2 2 2 4 7 6 11 12 16 14 13 16 16 17 17 17 12 16 14 12 13 6 7 4 4 4 5
26 25 30 18 25 22 23 27 26 28 25 30 19 9 12 15 10 9 6 7 4 2 6 6 8 7 12 6 6 7 15 16 15 14 15 15 14 11 9 10 9 6 6 8 10
Wind_Direction
281 292 295 299 304 311 318 324 327 325 323 321 320 322 320 325 325 325 242 205 185 182 171 167 163 174 174 192 194 223 253 267 277 264 315 131 242 230 219 204 179 204 258 177 180
275 277 289 289 293 301 310 318 321 323 322 319 320 320 321 326 325 306 196 193 176 176 180 181 186 180 191 190 200 235 266 307 311 289 283 279 247 205 225 214 187 149 164 180 171
265 273 271 281 286 290 297 307 316 319 320 319 318 319 322 329 326 180 179 160 175 175 189 196 196 194 212 199 203 207 270 351 288 281 296 290 267 246 246 255 355 205 155 164 163
260 268 271 276 283 284 286 291 302 312 315 318 317 317 321 329 307 235 210 230 208 194 196 191 190 203 236 224 200 251 258 280 289 302 293 291 284 247 275 2 322 169 159 167 168
262 259 266 270 275 278 285 285 290 300 308 311 315 317 324 302 269 258 226 226 202 194 200 196 201 212 234 227 228 245 267 299 305 295 271 245 233 252 152 2 89 134 155 156 167
272 267 266 265 271 274 278 282 284 288 299 303 310 314 317 275 267 254 225 204 191 188 203 193 200 218 257 256 252 317 286 294 289 289 183 231 194 230 121 126 115 131 149 162 176
266 270 267 268 265 269 276 276 278 282 290 297 303 309 296 267 264 248 211 189 185 195 192 193 204 227 219 233 259 282 281 217 218 170 169 234 214 226 138 139 131 147 158 167 167
265 265 269 273 273 271 273 278 275 278 284 291 297 301 265 272 251 229 209 199 182 188 179 182 199 261 243 281 249 260 258 252 139 172 154 239 87 116 169 171 155 162 169 188 179
263 263 265 270 272 271 273 273 282 275 284 287 291 277 267 262 246 238 209 199 210 211 193 192 199 248 227 248 247 217 260 241 151 205 178 228 314 121 174 189 175 176 174 181 178
270 260 262 264 271 269 273 273 284 282 277 277 258 267 247 232 194 194 199 190 176 169 165 199 217 237 222 240 253 208 226 219 226 168 219 211 264 152 185 195 199 187 179 183 187
267 266 257 261 268 270 280 289 285 260 236 220 232 234 275 264 211 191 183 182 193 198 207 198 226 226 236 233 311 247 228 234 105 110 227 243 280 282 195 204 203 197 191 190 190
255 265 261 253 257 255 231 244 244 271 292 259 248 251 249 264 293 199 184 184 194 204 183 199 227 230 242 238 244 236 220 209 150 142 248 248 275 317 197 211 212 209 204 199 193
252 253 260 243 237 227 220 240 259 291 269 269 234 236 237 217 228 215 186 200 200 203 201 224 119 199 205 208 225 232 264 195 308 202 241 273 252 204 190 214 212 219 218 212 205
245 244 249 223 235 228 228 235 251 223 273 232 214 230 196 190 227 214 201 192 199 208 201 229 221 224 228 240 234 237 223 250 240 267 262 283 236 164 192 213 218 217 213 215 211
237 236 241 200 200 187 177 208 208 187 274 125 166 159 182 188 135 191 192 197 203 189 189 203 193 206 228 238 217 253 171 243 268 277 258 195 255 134 181 229 225 221 218 217 213
241 231 230 217 205 177 146 141 139 222 240 182 155 180 164 205 213 153 170 199 209 181 215 210 151 201 224 198 227 141 179 215 233 236 234 178 261 205 216 261 299 228 225 225 220
234 221 223 211 215 179 166 142 188 231 73 171 184 178 202 183 203 185 176 187 184 189 200 196 205 182 199 202 179 205 196 217 200 198 241 130 232 280 330 290 291 287 265 239 227
223 222 225 217 212 191 184 186 223 229 222 347 156 188 199 176 204 192 182 190 203 200 194 198 199 206 186 229 218 203 216 229 239 203 168 188 239 129 56 294 294 289 279 268 234
217 222 221 216 207 197 193 205 215 206 206 223 148 173 213 194 197 187 198 198 193 201 189 199 204 142 195 190 227 172 215 344 141 50 259 250 239 245 153 268 260 315 276 240 223
213 218 217 214 209 215 205 221 214 205 209 223 213 200 185 205 197 198 192 209 199 201 207 196 203 192 148 177 179 272 142 178 217 216 233 172 260 300 54 114 93 53 31 31 44
205 209 211 201 205 224 213 213 219 198 203 213 211 214 223 182 209 202 194 181 197 198 208 194 220 151 181 205 198 175 198 228 291 279 262 267 273 142 193 139 233 274 315 345 7
190 202 184 186 190 227 221 208 205 212 197 213 254 236 226 199 204 210 208 213 199 185 192 196 208 203 204 96 273 264 227 205 234 189 228 278 262 223 265 260 250 261 270 271 289
190 164 177 179 192 223 225 217 217 189 207 199 215 227 226 217 205 216 216 197 187 194 200 178 209 207 199 190 191 211 207 223 236 264 231 233 260 162 186 220 230 252 242 250 255
180 164 156 195 206 206 209 218 210 216 217 215 219 220 237 231 215 208 218 170 191 204 203 181 203 215 224 227 207 205 217 213 220 228 256 241 282 264 254 257 257 223 215 241 244
183 185 174 187 205 203 217 209 206 197 214 205 210 227 211 225 169 185 187 145 149 173 195 203 217 215 233 246 248 237 239 222 226 234 250 267 275 260 273 285 257 236 219 185 167
188 185 180 180 201 201 200 216 208 205 194 202 216 207 216 221 48 124 36 82 122 163 172 190 215 214 225 228 231 241 243 250 234 254 257 260 265 264 269 251 225 225 180 141 103
208 190 178 209 197 203 202 204 216 203 212 207 200 188 209 238 271 278 313 305 311 298 181 191 195 185 226 212 221 252 238 238 229 226 234 254 263 278 245 224 219 207 171 136 116
Height
1550 1549 1548 1546 1545 1543 1542 1541 1539 1536 1534 1532 1531 1528 1525 1521 1518 1515 1514 1514 1513 1513 1514 1514 1516 1517 1518 1519 1519 1518 1509 1502 1501 1500 1494 1501 1502 1502 1502 1504 1506 1506 1506 1506 1505
1546 1545 1545 1544 1542 1541 1539 1538 1537 1534 1532 1530 1528 1526 1523 1518 1515 1512 1512 1511 1512 1513 1514 1514 1516 1516 1516 1516 1516 1512 1505 1500 1499 1497 1497 1497 1501 1501 1501 1499 1502 1508 1505 1504 1506
1541 1541 1541 1540 1538 1537 1536 1535 1534 1532 1530 1527 1525 1523 1521 1517 1514 1512 1511 1510 1511 1512 1513 1514 1515 1516 1513 1513 1512 1509 1502 1500 1499 1498 1497 1495 1498 1499 1497 1492 1496 1500 1505 1507 1509
1536 1536 1536 1536 1535 1533 1533 1531 1531 1530 1527 1525 1523 1520 1518 1517 1514 1510 1510 1510 1510 1510 1512 1513 1514 1513 1510 1509 1510 1509 1502 1501 1500 1500 1498 1496 1497 1497 1497 1498 1499 1501 1503 1505 1508
1529 1530 1530 1531 1531 1529 1529 1528 1527 1527 1525 1523 1520 1518 1516 1517 1510 1506 1508 1508 1508 1509 1511 1511 1512 1510 1507 1507 1509 1506 1500 1500 1499 1498 1498 1498 1495 1494 1498 1500 1501 1502 1505 1507 1510
1523 1524 1525 1525 1526 1525 1524 1524 1524 1523 1522 1521 1518 1516 1516 1515 1505 1504 1505 1506 1507 1508 1509 1509 1510 1510 1508 1507 1506 1503 1500 1498 1498 1497 1498 1496 1495 1496 1498 1501 1502 1505 1508 1509 1510
1518 1519 1519 1520 1520 1520 1521 1520 1519 1519 1519 1518 1516 1514 1511 1505 1501 1501 1503 1505 1505 1508 1508 1509 1509 1510 1507 1504 1505 1503 1499 1492 1494 1495 1495 1495 1491 1490 1497 1500 1503 1507 1509 1511 1512
1514 1514 1515 1515 1516 1515 1515 1516 1515 1515 1515 1514 1513 1511 1504 1498 1497 1498 1501 1503 1504 1505 1506 1507 1508 1509 1506 1505 1501 1498 1496 1489 1489 1492 1496 1496 1485 1490 1496 1499 1503 1507 1510 1513 1514
1510 1510 1510 1510 1511 1511 1512 1512 1512 1510 1510 1511 1509 1509 1499 1493 1492 1493 1497 1501 1503 1504 1505 1506 1507 1506 1505 1500 1496 1493 1488 1488 1491 1490 1491 1492 1482 1490 1496 1498 1500 1505 1508 1512 1514
1505 1505 1506 1506 1507 1507 1507 1509 1509 1507 1505 1506 1505 1510 1493 1492 1489 1490 1493 1498 1502 1502 1505 1505 1505 1500 1497 1496 1495 1490 1490 1486 1484 1487 1489 1485 1482 1486 1495 1496 1497 1501 1504 1508 1512
1501 1501 1501 1503 1504 1503 1507 1509 1509 1505 1501 1496 1494 1489 1489 1489 1488 1489 1491 1495 1500 1500 1496 1500 1497 1494 1488 1490 1493 1488 1488 1487 1484 1487 1488 1485 1481 1478 1489 1495 1495 1498 1502 1506 1509
1496 1498 1498 1499 1500 1502 1504 1506 1504 1503 1497 1490 1486 1485 1484 1487 1489 1487 1489 1493 1494 1492 1494 1497 1492 1486 1491 1494 1494 1489 1485 1484 1486 1487 1489 1480 1479 1476 1483 1489 1492 1494 1499 1501 1506
1492 1494 1495 1497 1497 1498 1499 1503 1502 1501 1498 1481 1478 1476 1478 1483 1482 1482 1485 1486 1487 1487 1488 1488 1485 1489 1491 1491 1494 1490 1487 1487 1486 1484 1483 1481 1474 1477 1482 1486 1490 1493 1495 1498 1500
1487 1489 1491 1494 1498 1496 1496 1497 1499 1502 1492 1470 1471 1466 1470 1474 1475 1476 1479 1483 1484 1483 1484 1485 1483 1489 1489 1489 1487 1489 1483 1486 1486 1485 1485 1479 1486 1473 1473 1477 1482 1485 1488 1491 1494
1480 1484 1488 1490 1492 1494 1494 1491 1498 1503 1486 1461 1465 1463 1465 1466 1463 1466 1473 1478 1475 1479 1484 1482 1483 1486 1487 1484 1485 1484 1485 1487 1484 1483 1485 1482 1483 1465 1473 1473 1471 1476 1480 1484 1487
1474 1479 1483 1486 1486 1489 1491 1490 1497 1496 1476 1456 1459 1460 1464 1464 1461 1463 1467 1475 1474 1477 1478 1474 1481 1481 1478 1483 1485 1484 1486 1487 1485 1484 1492 1478 1481 1466 1464 1465 1465 1468 1472 1476 1480
1468 1474 1477 1484 1484 1486 1488 1492 1492 1478 1454 1450 1453 1456 1455 1456 1457 1457 1457 1465 1464 1475 1476 1475 1476 1478 1481 1481 1484 1483 1482 1490 1499 1496 1491 1482 1484 1467 1462 1463 1466 1467 1468 1470 1474
1461 1468 1471 1476 1480 1482 1486 1488 1471 1447 1451 1447 1447 1451 1452 1449 1450 1452 1454 1458 1457 1458 1464 1472 1481 1474 1475 1475 1474 1477 1475 1484 1499 1495 1486 1486 1481 1463 1463 1465 1466 1466 1467 1467 1468
1456 1461 1465 1469 1476 1479 1481 1471 1442 1447 1445 1448 1445 1449 1453 1446 1445 1449 1449 1449 1450 1452 1460 1465 1467 1469 1472 1473 1473 1477 1481 1474 1485 1498 1494 1476 1468 1459 1462 1462 1465 1464 1464 1464 1464
1447 1453 1456 1465 1473 1473 1470 1446 1440 1441 1443 1443 1440 1436 1448 1448 1446 1443 1447 1442 1446 1450 1451 1459 1468 1467 1472 1473 1475 1473 1471 1483 1479 1496 1495 1477 1476 1467 1463 1462 1463 1463 1462 1462 1463
1443 1444 1446 1457 1469 1467 1443 1431 1436 1438 1440 1442 1436 1438 1436 1438 1441 1440 1439 1439 1441 1450 1451 1453 1457 1473 1471 1469 1464 1475 1473 1475 1473 1478 1486 1489 1475 1458 1460 1461 1463 1463 1464 1464 1463
1432 1433 1435 1448 1460 1448 1434 1428 1432 1433 1438 1440 1440 1438 1437 1435 1436 1435 1433 1432 1436 1442 1449 1450 1453 1464 1463 1464 1463 1460 1463 1467 1477 1482 1482 1483 1475 1454 1457 1461 1462 1462 1463 1464 1464
1419 1423 1429 1436 1439 1439 1433 1432 1430 1430 1430 1436 1438 1437 1436 1433 1436 1433 1431 1431 1434 1436 1439 1446 1453 1464 1465 1468 1466 1462 1463 1462 1466 1471 1472 1480 1469 1453 1456 1458 1459 1460 1460 1461 1461
1408 1411 1419 1427 1420 1423 1430 1426 1427 1430 1430 1434 1434 1437 1437 1433 1431 1431 1432 1434 1435 1435 1437 1443 1442 1450 1457 1451 1448 1459 1459 1459 1462 1470 1466 1464 1460 1452 1451 1450 1451 1455 1457 1459 1459
1388 1387 1386 1396 1407 1410 1418 1416 1421 1423 1428 1430 1431 1434 1434 1434 1431 1433 1430 1433 1436 1438 1439 1439 1442 1444 1442 1441 1442 1446 1448 1451 1456 1455 1458 1454 1451 1449 1447 1447 1448 1454 1454 1455 1457
1372 1369 1382 1384 1394 1396 1401 1407 1409 1416 1416 1419 1423 1430 1432 1432 1432 1436 1432 1429 1429 1438 1437 1439 1439 1440 1445 1441 1445 1446 1443 1443 1446 1447 1448 1448 1446 1443 1445 1450 1452 1453 1453 1454 1455
1364 1368 1372 1376 1388 1399 1392 1403 1404 1412 1415 1419 1424 1429 1431 1430 1435 1437 1437 1437 1437 1436 1435 1437 1437 1444 1446 1444 1447 1459 1445 1440 1442 1443 1443 1445 1439 1437 1442 1446 1450 1453 1453 1454 1455